{"data":{"norad_id":56374,"intl_designator":"2023-061A","name":"STARLINK-6156","alt_names":[],"object_type":"PAYLOAD","status":"ACTIVE","operator":null,"country":"US","launch_date":"2023-05-04","launch_site_code":"AFETR","launch_vehicle":null,"mission":null,"orbit_class":"UNKNOWN","rcs_meters":null,"size_class":null,"mass_kg":null,"dimensions":null,"purposes":["comms"],"wikipedia_slug":null,"has_3d_model":false,"image_url":null,"decayed_at":null,"tle_current":{"epoch":"2026-05-24T23:43:16.383648Z","epoch_age_seconds":75810,"freshness":"FRESH","line1":"1 56374U 23061A   26144.98838407  .00000177  00000+0  15944-4 0  9992","line2":"2 56374  43.0017 127.4241 0001028 270.1455  89.9279 15.27577997169513","mean_motion":15.27577997,"eccentricity":0.0001028,"inclination_deg":43.0017,"raan_deg":127.4241,"arg_perigee_deg":270.1455,"mean_anomaly_deg":89.9279,"bstar":1.5944e-5,"rev_number":16951,"period_min":94.266872318664,"perigee_km":482.34976320154,"apogee_km":483.76042429602,"semimajor_km":6861.1920937488,"source":"CELESTRAK","updated_at":"2026-05-25T13:38:18.010101Z"}}}